Regional Weather Roundup
Issued by NWS

Home | Current Version | Previous Version | Text Only | Print | Product List | Glossary On
Versions: 1 2 3 4 5 6 7 8 9 10 11 12 13 14 15 16 17 18 19 20 21 22 23 24 25 26 27 28 29 30 31 32 33 34 35 36 37 38 39 40 41 42 43 44 45 46 47 48 49 50
000
ASUS44 KBMX 271510
RWRAL

ALABAMA REGIONAL WEATHER ROUNDUP
NATIONAL WEATHER SERVICE BIRMINGHAM AL
1000 AM CDT MON MAR 27 2017

NOTE: "FAIR" INDICATES FEW OR NO CLOUDS BELOW 12,000 FEET
WITH NO SIGNIFICANT WEATHER AND/OR OBSTRUCTIONS TO VISIBILITY.

THE REMARK "TC" DENOTES TEMPERATURE IN DEGREES CELSIUS.

ALZ001>011-014-016>018-020-271600-
NORTH ALABAMA

CITY           SKY/WX    TMP DP  RH WIND       PRES   REMARKS
MUSCLE SHOALS  PTSUNNY   71  61  70 S10       29.99F
HUNTSVILLE     CLOUDY    72  63  73 SW13      30.02F
DECATUR        PTSUNNY   69  63  81 SW10      30.03S
HALEYVILLE     CLOUDY    67  63  87 S12       30.04S
GADSDEN        CLOUDY    70  63  78 S7        30.08S
$$

ALZ012-013-022-023-030>036-040>044-271600-
WEST CENTRAL ALABAMA

CITY           SKY/WX    TMP DP  RH WIND       PRES   REMARKS
TUSCALOOSA     CLOUDY    72  65  78 S13       30.02F
$$

ALZ015-024>027-033>036-040>044-271600-
CENTRAL ALABAMA

CITY           SKY/WX    TMP DP  RH WIND       PRES   REMARKS
BIRMINGHAM     CLOUDY    72  63  73 S14       30.07F
MONTGOMERY     PTSUNNY   74  63  68 S5        30.10S
SHELBY CO ARPT MOSUNNY   72  66  81 S10       30.06F
MAXWELL AFB    PTSUNNY   73  64  73 S6        30.09S
GREENVILLE     PTSUNNY   72  62  71 VRB7      30.09F
$$

ALZ019-021-028-029-037-038-045>048-271600-
EAST CENTRAL ALABAMA

CITY           SKY/WX    TMP DP  RH WIND       PRES   REMARKS
ANNISTON       CLOUDY    71  64  78 S5        30.09F
ALEXANDER CITY CLOUDY    69  64  81 S5        30.11S
AUBURN         MOSUNNY   72  62  71 SW9       30.14R
$$

ALZ051>064-271600-
SOUTHWEST ALABAMA

CITY           SKY/WX    TMP DP  RH WIND       PRES   REMARKS
MOBILE         PTSUNNY   77  66  68 SE10G20   30.06F
BROOKLEY FIELD PTSUNNY   75  71  87 E13       30.07F FOG
EVERGREEN      CLOUDY    72  65  78 S8        30.10F
$$

ALZ049-050-065>069-271600-
SOUTHEAST ALABAMA

CITY           SKY/WX    TMP DP  RH WIND       PRES   REMARKS
DOTHAN         CLOUDY    66  64  93 E6        30.17S
OZARK          MOSUNNY   69  63  80 SE6       30.13S
TROY           MOSUNNY   69  63  81 S8        30.13S
EUFAULA        FAIR      73  63  70 S6        30.13S
$$



USA.gov is the U.S. government's official web portal to all federal, state and local government web resources and services.